STARLINK-34387 (64315 NORAD) Tracking and Keplerian Element Data

This shows tracking and keplerian element data for the satellite.

Feedback or suggestion? Click here.




ElementValue
Catalog64315
NameSTARLINK-34387
Epoch Orbit2970
Epoch Day354.13075676
Epoch Year2025
RAAN34.9613
Inclination70.003
Eccentricity0.0003393
Argument of Perigee268.3622
Mean Anonmoly91.7149
Mean Motion14.98324406
Decay Rate7.807E-05
L11 64315U 25123AA 25354.13075676 .00007807 00000+0 66145-3 0 9992
L22 64315 70.0030 34.9613 0003393 268.3622 91.7149 14.98324406 29704



Live tracking and technical data element details for STARLINK-34387 (NORAD 64315). STARLINK-34387 can be tracked NOW for your location showing map with azimuth and elevation plus other details from your city location.







IsCatalogInMostPopularTable: catalog: 64315, numindb: 9
Update: records affected: 1



GetName: 64315 STARLINK-34387

Hit Count: updated at: Thu, 16 Apr 2026 05:04:42 GMT